DELTA 1 DEB, 7162

Orbit data source: Space-Track

DELTA 1 DEB, 7162 is space debris in SSO originally from a launch on Tue, 06 Nov 1973 UTC launched from the Air Force Western Test Range (AFWTR). Debris objects in space refer to the collection of defunct objects orbiting the Earth. Examples of debris include non-operational satellites, rocket bodies, and fragments generated from explosions, collisions, or faulty payload assembly.

Loading next visibility...
Identifier
7162, 1973-086EA
Orbit
SSO
Country
Flag of USUS
Related business
Manufacturer
Unknown
Mission
Spacecraft
Bus & Motor
Unknown
Mass
Unknown
Launch date (UTC)
1973-11-06 (53 years ago)
Launch vehicle
Unknown
Launch site
Air Force Western Test Range (AFWTR)
Object type
Payload
Rocket body
Debris
Shape & HBR
Unknown shape, 0.1 m
Radar Cross Section
Medium (>0.1 m² and <1 m²)

Expand to show TLE details & history
Last TLE update: 15 hours ago

TLE from 15 hours ago
0 DELTA 1 DEB
1  7162U 73086EA  26263.05915652  .00000558  00000-0  24043-2 0  9995
2  7162 101.4895 126.1816 0097178 303.9560 217.7857 12.85914779441064
Epoch: 2026-09-20T01:25Z
TLE epoch observation values (Epoch: 2026-09-20T01:25:11.123Z)
Latitude
18.53793°
Longitude
-70.18459°
Altitude
1,379.292 km
Speed
7.143 km/s
True Right ascension
20h 40m 16s
True Declination
18° 26' 34"
Sunlit
Object was in full shadow at epoch
Visualization orbit readout
Latitude
Unknown
Longitude
Unknown
Altitude
Unknown
Speed
Unknown
Apparent Right ascension
Unknown
Apparent Declination
Unknown
Sunlit
N/A
Visualization observer readout
Local Sidereal Time
09:46:39
Azimuth
Unknown
Elevation
Unknown
Doppler factor
Unknown
Orbital elements
Apogee altitude
1,390.027 km
Perigee altitude
1,240.501 km
Semi-major axis
7,693.401 km
Eccentricity
0.00972
Inclination
101.4895°
RAAN
126.1816°
Arg. of periapsis
303.956°
True anomaly
217.10991°
Mean anomaly
217.7857°
Eccentric anomaly
217.44716°
Mean motion
3.21637 °/min
Orbital period
111.93 mins
BSTAR
0.0024043
Loading maneuver chart data...
Computing Atmospheric mass density...
Loading historical data...
Loading historical data...
Loading historical data...
Loading historical data...
Loading historical data...
Loading historical data...
Loading historical data...

Documentation

Showing up to 5 results
|